Location: Newark
(54.4000°N, 32.4500°E)
Time: 15:15:54
(UTC+00:00)

ISS - Pass Details

Date: 24 January 2020
Orbit: 416 x 422 km, 51.6° (Epoch: 17 February)

Event Time Altitude Azimuth Distance (km) Brightness Sun altitude
Rises 17:24:45 0° 248° (WSW) 2,374 1.0 -27.5°
Reaches altitude 10° 17:26:54 10° 242° (WSW) 1,509 -0.3 -27.8°
Enters shadow 17:27:43 16° 237° (WSW) 1,199 -0.9 -27.9°
